STARLINK-1153, 45080

Orbit data source: Space-Track

STARLINK-1153, 45080 is a payload satellite owned by SpaceX/Seattle (US) in LEO that was launched on Wed, 29 Jan 2020 UTC via an FALCON 9 launch vehicle from the Air Force Eastern Test Range (AFETR). Payload-class satellites include a variety of spacecraft equipped with specific instruments for various scientific and technological missions. These include communications satellites like Starlink; space stations such as the ISS; scientific satellites like the Hubble; Earth observation satellites from companies like Planet Labs, Umbra, and HawkEye 360; GPS; miniature CubeSats for education and research; and military/defense satellites.

Loading next visibility...
Identifier
45080, 2020-006AN
Orbit
LEO
Country
Flag of USUS
Related business
Manufacturer
SpaceX/Seattle
Mission
Operational Commercial Communications
Bus & Motor
STARLINK, Unknown motor
Mass
260 kg wet, ~248 kg dry
Launch date (UTC)
2020-01-29 (6 years ago)
Launch vehicle
FALCON 9
Launch site
Air Force Eastern Test Range (AFETR)
Object type
Payload
Rocket body
Debris
Shape & HBR
Box + 1 Pan, 10.1 m
Radar Cross Section
13.562 m², Large (>1 m²)

Expand to show TLE details & history
Last TLE update: 17 hours ago

TLE from 17 hours ago
0 STARLINK-1153
1 45080U 20006AN  25341.22842509  .00002377  00000-0  17845-3 0  9999
2 45080  53.0554 321.6912 0001702  96.5071 263.6112 15.06393167322800
Epoch: 2025-12-07T05:28Z
TLE epoch observation values (Epoch: 2025-12-07T05:28:55.927Z)
Latitude
-0.00002°
Longitude
163.21333°
Altitude
548.243 km
Speed
7.589 km/s
True Right ascension
21h 26m 45s
True Declination
0° 00' 00"
Sunlit
Object was in daylight at epoch
Visualization orbit readout
Latitude
Unknown
Longitude
Unknown
Altitude
Unknown
Speed
Unknown
Apparent Right ascension
Unknown
Apparent Declination
Unknown
Sunlit
N/A
Visualization observer readout
Local Sidereal Time
20:47:00
Azimuth
Unknown
Elevation
Unknown
Doppler factor
Unknown
Orbital elements
Apogee altitude
548.682 km
Perigee altitude
546.324 km
Semi-major axis
6,925.64 km
Eccentricity
0.00017
Inclination
53.0554°
RAAN
321.6912°
Arg. of periapsis
96.5071°
True anomaly
263.59182°
Mean anomaly
263.6112°
Eccentric anomaly
263.60151°
Mean motion
3.76577 °/min
Orbital period
95.6 mins
BSTAR
0.00017845
Loading maneuver chart data...
Computing Atmospheric mass density...

Documentation

Showing up to 5 results
|